Weather History for Owen Roberts, Cayman Islands

Change the Weather History Date:

Wednesday, March 5, 2014

  Actual Average Record
Temperature  
Mean Temperature 78 °F -  
Max Temperature 84 °F 82 °F 87 °F (2003)
Min Temperature 73 °F 74 °F 71 °F (2009)
Cooling Degree Days 14    
Growing Degree Days 28 (Base 50)    
Moisture  
Dew Point 74 °F    
Average Humidity 80    
Maximum Humidity 94    
Minimum Humidity 67    
Precipitation  
Precipitation 0.00 in - - ()
Sea Level Pressure  
Sea Level Pressure 29.97 in    
Wind  
Wind Speed 5 mph ()    
Max Wind Speed 12 mph    
Max Gust Speed -    
Visibility 6.2 miles    
Events      
Averages and records for this station are not official NWS values.
T = Trace of Precipitation, MM = Missing Value Source: Averaged Metar Reports

Daily Weather History Graph

Daily Weather History Graph

Search for Another Location

Airport:

Trip Planner

Search our weather history database for the weather conditions in past years. The results will help you decide how hot, cold, wet, or windy it might be!

Date:

Astronomy

Mar. 05, 2014 Rise Set
Actual Time 6:41 AM EST 6:32 PM EST
Civil Twilight 6:19 AM EST 6:54 PM EST
Nautical Twilight 5:54 AM EST 7:19 PM EST
Astronomical Twilight 5:28 AM EST 7:45 PM EST
Moon 9:47 AM EST (3/5) 10:55 PM EST (3/5)
Length of Visible Light 12h 34m
Length of Day
11h 50m
Waxing Crescent, 23% of the Moon is Illuminated
Mar 5
Waxing Crescent
Mar 8
First Quarter
Mar 16
Full
Mar 23
Last Quarter
Mar 30
New

Hourly Weather History & Observations

Time (EST) Temp. Heat Index Dew Point Humidity Pressure Visibility Wind Dir Wind Speed Gust Speed Precip Events Conditions
6:30 AM 73.4 °F - 71.6 °F 94% 29.95 in 6.2 mi ESE 4.6 mph - N/A   Mostly Cloudy
7:00 AM 74 °F - 72 °F 93% 29.98 in 6 mi East 1.2 mph - -   Partly Cloudy
7:00 AM 73.4 °F - 71.6 °F 94% 29.98 in 6.2 mi Variable 1.2 mph - N/A   Scattered Clouds
8:00 AM 77.0 °F - 75.2 °F 94% 30.01 in 6.2 mi SSE 3.5 mph - N/A   Scattered Clouds
9:00 AM 80.6 °F 86.2 °F 75.2 °F 84% 30.01 in 6.2 mi SE 5.8 mph - N/A   Partly Cloudy
11:00 AM 82.4 °F 89.5 °F 75.2 °F 79% 30.01 in 6.2 mi SSE 8.1 mph - N/A   Partly Cloudy
12:00 PM 84.2 °F 92.3 °F 75.2 °F 74% 29.98 in 6.2 mi SSE 9.2 mph - N/A   Partly Cloudy
1:00 PM 83 °F - 74 °F 67% 29.98 in 6 mi SSE 9.2 mph - -   Scattered Clouds
1:00 PM 84.2 °F 92.3 °F 75.2 °F 74% 29.98 in 6.2 mi SSE 9.2 mph - N/A   Partly Cloudy
2:00 PM 84.2 °F 92.3 °F 75.2 °F 74% 29.95 in 6.2 mi SSE 6.9 mph - N/A   Scattered Clouds
3:00 PM 84.2 °F 92.3 °F 75.2 °F 74% 29.95 in 6.2 mi SSE 11.5 mph - N/A   Partly Cloudy
4:00 PM 84.2 °F 90.9 °F 73.4 °F 70% 29.95 in 6.2 mi SSE 6.9 mph - N/A   Partly Cloudy
4:55 PM 82.4 °F 88.2 °F 73.4 °F 74% 29.95 in 6.2 mi SSE 8.1 mph - N/A   Partly Cloudy
5:54 PM 80.6 °F 85.4 °F 73.4 °F 79% 29.95 in 6.2 mi SE 6.9 mph - N/A   Partly Cloudy
6:56 PM 78.8 °F - 71.6 °F 78% 29.95 in 6.2 mi SE 5.8 mph - N/A   Partly Cloudy
7:00 PM 79 °F - 72 °F 73% 29.96 in 6 mi SE 5.8 mph - -   Scattered Clouds
7:50 PM 78.8 °F - 71.6 °F 78% 29.95 in - SSE 9.2 mph - N/A   Clear
8:53 PM 78.8 °F - 73.4 °F 83% 29.98 in - SSE 10.4 mph - N/A   Clear
9:51 PM 78.8 °F - 73.4 °F 83% 30.01 in 6.2 mi SSE 6.9 mph - N/A   Partly Cloudy